Location: Poughquag
(41.6090°N, 73.6820°W)
Time: 12:53:12
(UTC-04:00)

Vanguard 2 Rocket - Pass Details

Date: 04 June 2020
Orbit: 556 x 3324 km, 32.9° (Epoch: 06 July)

Event Time Altitude Azimuth Distance (km) Brightness Sun altitude
Rises 13:56:35 0° 222° (SW) 3,073 10.0 66.8°
Reaches altitude 10° 13:58:55 10° 209° (SSW) 2,359 9.6 66.5°
Maximum altitude 14:03:33 27° 151° (SSE) 1,868 9.0 65.9°
Drops below altitude 10° 14:10:28 10° 98° (E) 3,637 9.9 65.0°
Sets 14:15:02 0° 88° (E) 5,144 10.5 64.4°
